The Official Home Page Of The Professional Rodeo Cowboys Association PRCA RAM WORLD STANDINGS
ProRodeoTv.Com
Red

PRCA Stock Statistics

SEARCH BY:
Stock Rodeo Contestant Stock Contractor

Braden Richardson

EVENT:
Unofficial results reflect placement at time of Web posting and can change.

SEASON BREAKDOWN

Season Attempts Qual Rides Re-rides Ride %
2018 65 15 0 23.08 %
2017 41 8 0 19.51 %
Totals 106 23 0 0.00 %

RODEO DETAIL

Date Location Rodeo SC Brand Ride Comments Stock Score Contestant Score
7/21/2018 Salinas, CA California Rodeo Salinas WR 322 0.00 14.50 / 18.50 0.00 / 0.00
7/20/2018 Nampa, ID Snake River Stampede FL 447 0.00 21.00 / 21.50 0.00 / 0.00
7/14/2018 Colorado Springs, CO Pikes Peak or Bust Rodeo FL 389 0.00 21.00 / 21.00 0.00 / 0.00
7/13/2018 Casper, WY Central Wyoming Fair & PRCA Rodeo LH 43X 0.00 21.50 / 22.00 0.00 / 0.00
7/12/2018 Colorado Springs, CO Pikes Peak or Bust Rodeo FL 3157 88.50 21.00 / 22.50 22.00 / 23.00
7/11/2018 Sheridan, WY Sheridan WYO Rodeo SA 314 76.00 19.00 / 19.00 20.00 / 18.00
7/8/2018 Isanti, MN Isanti Firefighters Xtreme Bulls CP 196 0.00 21.50 / 21.50 0.00 / 0.00
7/7/2018 Hamel, MN Hamel Rodeo & Bull Ridin Bonanza JB 29 83.50 20.00 / 21.00 21.00 / 21.50
7/6/2018 Spooner, WI Heart Of The North Rodeo BA S339 0.00 19.50 / 20.50 0.00 / 0.00
7/4/2018 Red Lodge, MT Home Of Champions Rodeo BR 43 0.00 22.00 / 19.00 0.00 / 0.00
7/3/2018 Livingston, MT Livingston Roundup GK 311 0.00 22.00 / 22.00 0.00 / 0.00
7/3/2018 Greeley, CO Greeley Stampede BU 014 0.00 22.50 / 21.00 0.00 / 0.00
7/2/2018 Mandan, ND Mandan Rodeo Days DK 104 0.00 21.00 / 21.50 0.00 / 0.00
7/1/2018 Cody, WY Cody Stampede SM 952 0.00 18.00 / 18.00 0.00 / 0.00
6/30/2018 Cody, WY Cody Stampede Xtreme Bulls FR 407 0.00 22.00 / 21.00 0.00 / 0.00
6/28/2018 Greeley, CO Greeley Stampede BU 314 85.50 21.00 / 21.00 22.00 / 21.50
6/26/2018 Greeley, CO Greeley Stampede Xtreme Bulls DH 43X 0.00 21.50 / 21.50 0.00 / 0.00
6/17/2018 Reno, NV Reno Rodeo BI 266 0.00 22.50 / 22.50 0.00 / 0.00
6/13/2018 Reno, NV Reno Rodeo Xtreme Bulls BS 14Y 0.00 21.50 / 23.00 0.00 / 0.00
6/13/2018 Reno, NV Reno Rodeo Xtreme Bulls DG C31 84.50 21.50 / 21.50 19.00 / 22.50
6/8/2018 Woodward, OK Woodward Elks Rodeo BU 453 0.00 21.00 / 21.50 0.00 / 0.00
6/7/2018 Coleman, TX Coleman PRCA Rodeo SS Y10 88.50 22.00 / 22.00 22.50 / 22.00
6/6/2018 Gladewater, TX Gladewater Round-Up Xtreme Bulls RG A9 0.00 22.00 / 22.50 0.00 / 0.00
6/5/2018 Weatherford, TX Parker County Sheriff s Posse Xtreme Bulls SS 79A 0.00 0.00 / 22.00 0.00 / 0.00
6/1/2018 Fort Smith, AR Old Fort Days Rodeo AN V4 0.00 20.00 / 20.50 0.00 / 0.00
Page of 3
Per Page
Official Gear Of The PRCA

 
 
 
PRCA National Sponsors
MGM Grand Polaris Ranger
Copyright © 2018 Professional Rodeo Cowboys Association. All rights reserved. No portion of ProRodeo.com may be duplicated, redistributed or manipulated in any form. By accessing any information beyond this page, you agree to abide by the Terms of Use.
PRCA Wrangler National Finals Rodeo Wrangler ProRodeo Tour Finale Presented by Justin Boots Xtreme Bulls RAM National Circuit Finals Rodeo ProRodeo Gear ProRodeo Tour